Weather in Edinets

Moldova     48°10′16″N   27°18′12″E
temp.,
°C
wind,
m/s
gust,
m/s
humid.,
%
clouds,
%
prec.,
mm/h
press.,
hPa
HPBL,
m
7 march, sun
sun723:00−1wnw48660 0.0 1030690
02:00−1w37640 0.0 1030396
05:00−2wsw48630 0.0 1028366
08:00−1sw59590 0.0 1026369
11:00+3sw57390 0.0 1023969
14:00+5wsw583816 0.0 10211395
17:00+5w36491 0.0 1018343
20:00+1nw23631 0.0 101832
8 march, mon
mon823:000w346833 0.0 101882
02:000wsw346216 0.0 101783
05:00−1w37640 0.0 1015248
08:00+1wnw612570 0.0 1016844
11:00+3nw7106323 0.0 10161115
14:00+4nw686155 0.0 10161311
17:00+3nnw576179 0.1 1016997
20:000nnw376176 0.1 1019410
9 march, tue
tue923:00−1wnw3768100 0.0 1020325
02:00−1wnw477074 0.0 1021370
05:00−1nw36720 0.0 1021412
08:00−1nw35693 0.0 1022456
11:00+1nw345291 0.0 10221265
14:00+2nw335195 0.1 10211341
17:00+1n3352100 0.1 10201234
20:00−1nne236193 0.1 102381
10 march, wed
wed1023:00−1ne236085 0.0 1023151
02:00−1ene236492 0.0 1023180
05:00−1e2366100 0.0 1023175
08:00−1ne2262100 0.0 1024249
11:00+1n334669 0.0 10251438
14:00+2n234585 0.0 10241522
17:00+2nnw334898 0.0 10241423
20:00−1ene126164 0.0 102529
11 march, thu
thu1123:00−1sse22600 0.0 102644
02:00−1sse35607 0.0 1026151
05:00−1sse48630 0.0 1024278
08:000s46720 0.0 1025392
11:00+3s68602 0.0 1024844
14:00+5s68536 0.0 10211012
17:00+5s595096 0.0 1019642
20:00+4s5116098 0.0 1018330